• In Russia
  • List of Countries
  • For 7 days
  • Water Temperature
  • Satellite Maps
  • Weather Map
  • Weather Widgets
  • user-avatar
    Login

    Hourly Weather Melbourne

    Today, 23 March, Thursday

    Time Temperature Precipitation Wind Pressure Humidity
    00:00 +17°C° 0 mm 4 mps 763 mmHg 86%
    01:00 +17°C° 0 mm 4 mps 763 mmHg 86%
    02:00 +17°C° 0 mm 4 mps 763 mmHg 87%
    03:00 +17°C° 0 mm 4 mps 763 mmHg 88%
    04:00 +16°C° 0 mm 3 mps 763 mmHg 89%
    05:00 +16°C° 0 mm 3 mps 763 mmHg 89%
    06:00 +16°C° 0 mm 3 mps 763 mmHg 89%
    07:00 +16°C° 0 mm 3 mps 763 mmHg 89%
    08:00 +18°C° 0 mm 3 mps 764 mmHg 83%
    09:00 +19°C° 0 mm 3 mps 764 mmHg 77%
    10:00 +20°C° 0 mm 3 mps 764 mmHg 70%
    11:00 +22°C° 0 mm 3 mps 763 mmHg 67%
    12:00 +24°C° 0 mm 3 mps 763 mmHg 63%
    13:00 +25°C° 0 mm 3 mps 763 mmHg 59%
    14:00 +25°C° 0 mm 3 mps 763 mmHg 60%
    15:00 +25°C° 0 mm 4 mps 762 mmHg 60%
    16:00 +25°C° 0 mm 4 mps 762 mmHg 61%
    17:00 +22°C° 0 mm 4 mps 762 mmHg 67%
    18:00 +21°C° 0 mm 3 mps 762 mmHg 74%
    19:00 +19°C° 0 mm 3 mps 763 mmHg 80%
    20:00 +18°C° 0 mm 3 mps 763 mmHg 83%
    21:00 +18°C° 0 mm 3 mps 763 mmHg 87%
    22:00 +17°C° 0 mm 3 mps 764 mmHg 91%
    23:00 +17°C° 0 mm 3 mps 764 mmHg 91%

    Tomorrow, 24 March, Friday

    Time Temperature Precipitation Wind Pressure Humidity
    00:00 +16°C° 0 mm 3 mps 763 mmHg 92%
    01:00 +16°C° 0 mm 3 mps 763 mmHg 93%
    02:00 +16°C° 0 mm 2 mps 763 mmHg 93%
    03:00 +16°C° 0 mm 2 mps 763 mmHg 94%
    04:00 +15°C° 0 mm 1 mps 763 mmHg 94%
    05:00 +15°C° 0 mm 1 mps 763 mmHg 94%
    06:00 +15°C° 0 mm 2 mps 763 mmHg 94%
    07:00 +15°C° 0 mm 2 mps 763 mmHg 95%
    08:00 +18°C° 0 mm 2 mps 763 mmHg 83%
    09:00 +21°C° 0 mm 1 mps 763 mmHg 72%
    10:00 +24°C° 0 mm 1 mps 763 mmHg 60%
    11:00 +25°C° 0 mm 1 mps 763 mmHg 56%
    12:00 +26°C° 0 mm 1 mps 762 mmHg 52%
    13:00 +28°C° 0 mm 1 mps 762 mmHg 47%
    14:00 +28°C° 0 mm 2 mps 761 mmHg 48%
    15:00 +28°C° 0 mm 2 mps 760 mmHg 48%
    16:00 +28°C° 0 mm 2 mps 760 mmHg 48%
    17:00 +26°C° 0 mm 2 mps 760 mmHg 58%
    18:00 +23°C° 0 mm 2 mps 760 mmHg 68%
    19:00 +20°C° 0 mm 2 mps 760 mmHg 78%
    20:00 +20°C° 0 mm 2 mps 760 mmHg 80%
    21:00 +20°C° 0 mm 2 mps 760 mmHg 81%
    22:00 +20°C° 0 mm 1 mps 760 mmHg 83%
    23:00 +20°C° 0 mm 1 mps 759 mmHg 81%

    Day after tomorrow, 25 March, Saturday

    Time Temperature Precipitation Wind Pressure Humidity
    00:00 +21°C° 0 mm 1 mps 759 mmHg 80%
    01:00 +21°C° 0 mm 1 mps 759 mmHg 78%
    02:00 +21°C° 0.1 mm 1 mps 758 mmHg 80%
    03:00 +20°C° 0.1 mm 2 mps 758 mmHg 82%
    04:00 +20°C° 0.1 mm 2 mps 758 mmHg 83%
    05:00 +20°C° 0.4 mm 2 mps 758 mmHg 86%
    06:00 +20°C° 0.4 mm 2 mps 758 mmHg 88%
    07:00 +20°C° 0.4 mm 3 mps 758 mmHg 91%
    08:00 +21°C° 0.4 mm 3 mps 758 mmHg 88%
    09:00 +22°C° 0.4 mm 3 mps 759 mmHg 85%
    10:00 +25°C° 0.4 mm 3 mps 759 mmHg 81%
    11:00 +25°C° 0.1 mm 2 mps 758 mmHg 79%
    12:00 +26°C° 0.1 mm 2 mps 758 mmHg 77%
    13:00 +26°C° 0.1 mm 2 mps 758 mmHg 75%
    14:00 +27°C° 0 mm 2 mps 758 mmHg 70%
    15:00 +28°C° 0 mm 1 mps 757 mmHg 65%
    16:00 +29°C° 0 mm 1 mps 757 mmHg 60%
    17:00 +27°C° 0 mm 1 mps 757 mmHg 68%
    18:00 +25°C° 0 mm 1 mps 758 mmHg 76%
    19:00 +23°C° 0 mm 1 mps 758 mmHg 84%
    20:00 +23°C° 0 mm 1 mps 758 mmHg 86%
    21:00 +23°C° 0 mm 1 mps 758 mmHg 88%
    22:00 +22°C° 0 mm 1 mps 759 mmHg 90%
    23:00 +22°C° 0 mm 1 mps 758 mmHg 90%

    26 March, Sunday

    Time Temperature Precipitation Wind Pressure Humidity
    00:00 +22°C° 0 mm 1 mps 758 mmHg 91%
    01:00 +22°C° 0 mm 1 mps 758 mmHg 92%
    02:00 +22°C° 0 mm 1 mps 758 mmHg 91%
    03:00 +20°C° 0 mm 2 mps 758 mmHg 91%
    04:00 +20°C° 0 mm 2 mps 758 mmHg 91%
    05:00 +21°C° 0 mm 2 mps 758 mmHg 89%
    06:00 +21°C° 0 mm 2 mps 758 mmHg 87%
    07:00 +21°C° 0 mm 2 mps 758 mmHg 85%
    08:00 +23°C° 0 mm 2 mps 758 mmHg 80%
    09:00 +25°C° 0 mm 2 mps 758 mmHg 75%
    10:00 +26°C° 0 mm 2 mps 759 mmHg 70%
    11:00 +27°C° 0 mm 2 mps 758 mmHg 66%
    12:00 +29°C° 0 mm 2 mps 758 mmHg 62%
    13:00 +30°C° 0 mm 2 mps 757 mmHg 57%
    14:00 +30°C° 0 mm 2 mps 757 mmHg 57%
    15:00 +30°C° 0 mm 2 mps 757 mmHg 57%
    16:00 +30°C° 0 mm 2 mps 756 mmHg 56%
    17:00 +29°C° 0 mm 2 mps 756 mmHg 63%
    18:00 +27°C° 0 mm 2 mps 757 mmHg 69%
    19:00 +26°C° 0 mm 2 mps 757 mmHg 75%
    20:00 +25°C° 0 mm 2 mps 757 mmHg 76%
    21:00 +25°C° 0 mm 2 mps 757 mmHg 78%
    22:00 +25°C° 0 mm 2 mps 756 mmHg 79%
    23:00 +25°C° 0 mm 2 mps 756 mmHg 76%

    27 March, Monday

    Time Temperature Precipitation Wind Pressure Humidity
    00:00 +25°C° 0 mm 2 mps 755 mmHg 73%
    01:00 +25°C° 0 mm 3 mps 755 mmHg 71%
    02:00 +26°C° 0 mm 3 mps 754 mmHg 67%
    03:00 +26°C° 0 mm 4 mps 754 mmHg 63%
    04:00 +27°C° 0 mm 4 mps 753 mmHg 59%
    05:00 +27°C° 0 mm 5 mps 753 mmHg 59%
    06:00 +27°C° 0 mm 5 mps 753 mmHg 58%
    07:00 +27°C° 0 mm 5 mps 753 mmHg 58%
    08:00 +29°C° 0 mm 6 mps 752 mmHg 55%
    09:00 +30°C° 0 mm 6 mps 752 mmHg 51%
    10:00 +32°C° 0 mm 6 mps 752 mmHg 48%
    11:00 +33°C° 0 mm 6 mps 752 mmHg 45%
    12:00 +35°C° 0 mm 5 mps 752 mmHg 41%
    13:00 +36°C° 0 mm 5 mps 752 mmHg 38%
    14:00 +33°C° 0.9 mm 5 mps 753 mmHg 50%
    15:00 +29°C° 0.9 mm 4 mps 753 mmHg 62%
    16:00 +25°C° 0.9 mm 4 mps 754 mmHg 74%
    17:00 +24°C° 1.4 mm 3 mps 754 mmHg 79%
    18:00 +21°C° 1.4 mm 2 mps 755 mmHg 85%
    19:00 +20°C° 1.4 mm 2 mps 756 mmHg 90%
    20:00 +19°C° 0 mm 2 mps 757 mmHg 89%
    21:00 +19°C° 0 mm 2 mps 757 mmHg 88%
    22:00 +19°C° 0 mm 1 mps 758 mmHg 88%
    23:00 +17°C° 0 mm 2 mps 758 mmHg 88%

    28 March, Tuesday

    Time Temperature Precipitation Wind Pressure Humidity
    00:00 +16°C° 0 mm 2 mps 758 mmHg 88%
    01:00 +16°C° 0 mm 2 mps 758 mmHg 89%
    02:00 +15°C° 0 mm 2 mps 758 mmHg 90%
    03:00 +15°C° 0 mm 2 mps 758 mmHg 90%
    04:00 +14°C° 0 mm 2 mps 758 mmHg 91%
    05:00 +14°C° 0 mm 2 mps 758 mmHg 92%
    06:00 +14°C° 0 mm 2 mps 759 mmHg 92%
    07:00 +14°C° 0 mm 2 mps 759 mmHg 92%
    08:00 +15°C° 0 mm 2 mps 759 mmHg 84%
    09:00 +17°C° 0 mm 2 mps 760 mmHg 76%
    10:00 +19°C° 0 mm 2 mps 760 mmHg 68%
    11:00 +20°C° 0 mm 2 mps 760 mmHg 61%
    12:00 +21°C° 0 mm 2 mps 759 mmHg 54%
    13:00 +24°C° 0 mm 2 mps 759 mmHg 47%
    14:00 +24°C° 0 mm 2 mps 759 mmHg 47%
    15:00 +24°C° 0 mm 2 mps 759 mmHg 48%
    16:00 +24°C° 0 mm 2 mps 759 mmHg 49%
    17:00 +21°C° 0 mm 2 mps 759 mmHg 57%
    18:00 +19°C° 0 mm 2 mps 760 mmHg 66%
    19:00 +17°C° 0 mm 2 mps 760 mmHg 74%
    20:00 +16°C° 0 mm 2 mps 761 mmHg 78%
    21:00 +15°C° 0 mm 1 mps 761 mmHg 82%
    22:00 +15°C° 0 mm 1 mps 762 mmHg 85%
    23:00 +14°C° 0 mm 1 mps 761 mmHg 87%
    Show more